GFSWCAN_prec_cthk_054.txt.gz
RH
98 98 98 98 97 90 86 88 81 75 70 68 72 80 79 77 64 55 67 75 66 64 64 69 54 40 40 42 38 41 56 63 70 81 84 84 82 67 63 61 65 53 53 57 62 63 54 38 34 37 42 48 47 42
97 98 98 97 95 89 83 81 82 75 64 63 82 80 67 73 68 60 72 75 73 65 61 60 62 52 48 46 38 42 49 60 65 79 78 83 89 78 65 68 60 53 38 43 45 47 41 39 38 40 41 38 38 38
91 95 96 92 85 81 79 68 61 61 59 85 95 98 83 67 63 57 60 75 69 62 71 94 79 69 51 51 43 45 55 65 64 64 70 88 92 75 69 64 55 42 37 38 39 45 42 39 39 37 38 39 40 39
92 89 85 81 76 67 67 77 86 98 95 97 94 84 80 67 58 57 63 66 71 63 63 71 71 71 65 55 46 44 64 76 73 68 70 67 75 64 65 55 46 37 38 40 52 51 47 45 42 40 41 41 42 43
84 81 77 71 70 81 86 98 99 99 99 94 94 86 79 58 58 64 64 66 70 55 55 50 70 95 79 62 54 54 65 68 69 70 72 72 72 69 64 54 46 38 35 40 48 45 45 46 45 46 46 47 48 45
76 79 77 82 86 95 99 99 98 96 92 87 80 72 60 53 53 50 59 63 60 52 95 99 96 86 84 76 75 71 68 70 71 77 82 73 69 67 68 64 50 46 42 37 41 42 43 46 49 51 53 52 51 49
68 75 84 89 95 95 93 87 83 78 77 73 74 62 54 55 49 41 47 46 46 86 98 98 94 82 90 84 86 82 78 83 82 88 88 77 77 74 67 64 55 54 51 49 46 46 51 50 53 57 57 57 55 54
67 69 74 79 81 80 79 78 76 72 67 64 60 57 58 58 53 44 60 70 66 80 83 83 83 94 78 98 93 90 89 94 93 96 95 91 85 76 74 64 60 60 60 59 56 53 53 56 60 61 59 58 61 66
71 72 73 69 67 63 60 62 65 60 57 61 61 57 53 54 53 52 80 97 98 98 97 90 98 95 88 88 90 89 88 97 98 97 91 85 86 85 75 72 69 65 64 66 66 63 64 64 64 64 63 67 70 70
87 74 67 65 59 55 54 54 53 54 58 62 60 62 59 60 86 88 98 98 98 97 98 98 93 90 90 90 86 82 80 84 84 80 79 81 82 80 79 78 76 70 67 71 71 73 73 70 68 71 73 75 74 73
89 96 94 79 66 61 61 64 65 68 70 77 78 88 95 94 97 98 98 98 98 97 94 92 87 82 82 83 83 82 81 77 77 77 83 81 81 78 76 74 71 71 76 80 81 78 74 71 75 79 80 79 81 79
83 83 92 93 95 94 79 69 71 74 74 88 90 92 95 97 98 97 98 98 94 88 85 85 82 81 87 84 81 81 83 81 84 81 83 82 76 73 73 74 81 86 86 84 78 76 79 82 81 80 80 80 78 74
93 90 91 85 86 91 96 97 98 93 88 96 94 96 98 98 96 91 93 86 84 81 83 84 88 90 91 88 88 89 85 87 82 88 87 88 87 88 89 91 88 81 76 78 81 83 83 83 81 82 84 83 79 75
95 95 92 90 90 90 98 99 99 98 97 95 96 98 98 92 89 89 87 87 86 85 84 86 89 91 91 91 94 91 94 90 91 89 85 86 89 90 87 83 82 84 86 86 86 87 87 88 90 85 84 79 78 76
96 95 94 93 91 95 96 98 95 92 88 95 96 96 91 87 84 82 79 78 82 83 84 86 89 89 94 97 93 90 92 89 86 87 88 87 86 86 87 89 89 88 87 86 88 91 92 92 88 85 85 82 78 75
96 96 96 96 96 95 96 91 88 89 91 92 91 94 93 90 88 85 85 82 84 88 85 84 86 85 88 86 87 87 86 89 90 91 89 89 91 94 94 91 90 91 94 95 95 94 90 85 85 85 84 80 74 64
95 95 96 97 95 96 94 92 91 90 92 93 94 92 93 91 89 90 90 90 88 83 85 83 83 87 86 86 87 88 90 90 92 93 95 95 95 95 96 97 96 97 97 94 89 86 87 89 87 84 79 70 62 56
97 97 97 97 94 92 93 93 90 92 94 96 96 97 97 97 95 95 94 95 92 88 89 92 92 93 93 92 93 95 97 97 97 97 98 98 98 98 98 97 97 97 93 90 89 91 91 88 82 74 68 61 58 58
86 92 96 96 95 95 97 97 95 96 97 97 97 98 98 98 97 98 97 98 96 95 94 95 96 96 97 97 97 97 97 97 97 98 98 98 98 98 97 97 96 94 91 91 90 85 81 79 76 70 66 67 67 64
74 80 86 93 93 94 95 96 95 95 96 95 96 97 96 97 97 97 97 97 96 94 95 96 97 97 97 97 97 98 98 98 97 97 96 95 94 92 91 91 90 87 83 80 80 79 76 75 77 76 73 68 66 68
52 59 68 72 92 95 96 97 97 97 97 96 97 96 97 97 97 97 96 94 93 97 97 97 97 97 98 98 98 98 98 98 96 92 89 88 89 89 85 81 80 80 79 79 80 80 80 78 78 79 74 76 77 75
37 41 48 61 76 89 96 97 97 97 97 97 97 97 97 97 94 91 92 93 96 97 97 97 97 97 97 97 96 93 90 88 86 83 82 79 79 80 81 82 82 81 79 79 78 79 81 84 86 84 81 81 81 82
31 31 38 47 58 79 93 95 95 97 97 97 97 97 97 97 97 89 95 95 96 97 97 97 96 95 92 90 88 87 83 80 79 81 83 84 82 81 79 78 78 78 78 80 83 86 88 88 88 85 84 83 81 77
27 36 44 46 49 65 76 83 87 91 92 94 93 95 95 94 83 86 92 93 91 90 89 89 87 85 84 82 80 80 81 80 81 81 81 79 78 77 77 77 78 81 84 87 88 88 87 86 85 82 80 77 73 66
17 30 35 47 52 53 56 60 65 67 74 78 79 81 83 73 73 79 79 79 79 78 77 73 71 69 68 68 69 70 69 69 68 69 72 74 76 79 80 81 83 85 87 86 84 82 80 79 77 74 68 61 50 43
32 39 42 41 43 46 52 54 60 62 59 60 64 65 62 59 63 70 69 71 71 71 70 67 66 66 66 66 67 68 69 69 70 71 74 77 79 81 81 80 80 79 77 76 74 69 63 56 48 41 38 39 41 45
44 47 45 45 46 45 48 50 49 51 55 58 60 60 56 59 63 66 66 66 65 65 65 66 66 66 67 68 68 68 68 70 71 72 71 69 66 64 63 59 55 52 47 44 42 41 40 39 40 41 43 46 48 49
52 53 51 48 46 48 52 52 54 57 59 60 59 61 62 63 66 68 69 69 69 70 71 72 72 72 72 72 70 69 65 61 61 59 57 54 51 49 47 45 43 42 40 38 38 38 40 42 45 46 48 49 50 51
57 56 51 53 53 56 61 62 65 66 66 66 66 68 69 70 73 74 75 76 74 72 69 68 66 65 60 58 56 54 54 52 54 52 50 47 44 40 36 36 36 38 40 41 42 44 45 45 45 44 44 45 45 47
48 48 46 49 54 60 63 64 65 64 61 58 59 63 63 65 66 65 65 66 65 64 62 61 62 63 58 54 53 53 52 48 46 43 39 37 37 37 37 36 36 36 36 36 37 39 42 46 50 54 58 61 64 67
36 37 38 43 52 54 54 54 52 47 46 49 51 54 55 59 60 60 61 62 62 60 59 55 54 54 52 52 52 51 48 43 39 37 35 33 31 30 30 32 35 39 44 49 53 56 60 63 65 66 67 69 70 71
35 37 39 43 46 48 49 49 48 48 47 46 47 48 50 51 53 55 56 56 57 58 57 55 54 55 54 52 46 39 36 33 30 26 25 28 33 39 44 48 51 53 55 57 58 59 58 58 59 60 62 64 66 69
40 40 43 47 52 51 50 54 54 56 56 56 56 57 58 58 58 60 61 62 60 59 59 58 55 52 45 37 31 26 25 27 32 37 40 43 45 48 51 53 54 54 53 53 52 52 54 56 59 62 66 69 73 75

GFSWCAN_prec_cthk_060.txt.gz
RH
76 83 85 91 90 89 93 98 99 98 99 97 94 88 78 74 60 70 86 85 74 75 67 65 52 41 37 35 37 34 45 51 51 48 61 72 71 78 75 69 60 60 68 69 69 68 62 47 52 47 32 25 26 30
77 83 77 74 84 97 99 98 98 99 98 98 95 79 74 73 60 73 85 96 79 75 72 67 63 51 31 25 28 36 36 41 39 48 55 60 70 73 71 76 67 63 56 61 59 56 48 47 52 45 29 26 28 31
98 98 98 98 98 99 98 99 98 98 98 97 87 79 73 67 58 69 90 97 77 68 75 71 69 74 62 38 33 34 40 55 54 41 54 55 60 61 67 76 70 58 56 63 64 62 59 56 53 50 29 27 29 31
98 98 98 98 98 98 98 98 98 98 96 91 87 81 74 65 61 73 89 96 78 71 79 75 72 69 69 63 51 45 46 60 69 62 53 56 60 61 71 73 70 64 64 65 66 67 65 61 57 45 31 32 34 34
98 97 97 97 97 97 96 94 89 85 81 78 74 73 67 62 71 89 91 91 80 72 77 79 72 79 72 56 50 49 41 47 62 70 72 64 59 65 73 75 73 67 61 67 64 63 68 60 48 39 35 37 39 37
95 93 92 91 90 86 84 85 83 80 74 70 71 69 63 62 86 94 99 88 87 77 93 90 78 78 88 83 71 56 47 46 50 64 69 69 70 61 75 73 58 57 59 56 54 62 62 55 44 42 41 42 42 44
81 78 75 76 79 79 83 85 85 85 83 76 72 67 61 79 92 96 96 85 86 81 82 83 69 67 67 69 78 71 62 57 50 55 71 68 66 65 68 67 63 65 62 61 60 60 63 57 53 53 51 50 50 53
74 75 70 69 69 67 65 72 79 80 76 73 69 88 92 92 95 97 79 93 85 85 73 69 60 53 59 70 79 81 75 69 69 66 72 76 75 70 70 66 72 73 72 68 65 64 65 64 66 67 66 64 64 63
81 79 83 88 90 80 68 64 65 65 70 77 95 97 95 98 97 87 94 97 96 87 78 67 64 62 68 80 75 89 86 80 74 80 80 75 76 76 69 78 77 81 77 77 77 75 74 73 77 76 73 72 70 71
86 84 81 89 91 90 86 82 93 88 93 97 97 96 98 94 93 82 91 95 96 87 72 61 61 60 76 77 88 98 98 92 83 82 88 81 75 81 84 87 85 87 84 81 81 84 84 86 84 87 85 86 85 85
74 76 76 78 85 89 92 94 97 96 95 88 86 84 83 82 75 76 88 87 82 75 61 54 58 70 68 86 90 93 99 98 96 92 96 93 85 84 89 95 92 89 94 96 91 87 86 82 87 87 90 94 94 96
66 64 59 65 69 72 75 81 80 77 72 63 60 70 89 85 83 87 73 73 70 60 57 53 50 69 83 86 88 98 99 97 93 92 98 95 86 81 83 87 85 88 88 87 86 85 84 84 84 88 95 98 97 92
56 59 62 66 70 75 78 82 72 62 58 46 48 77 89 84 76 67 62 55 55 54 50 53 71 79 81 81 85 99 98 98 96 97 93 86 82 78 78 80 83 86 85 84 85 87 87 88 89 98 98 95 94 94
62 64 65 70 73 75 80 79 84 88 88 87 98 83 70 63 63 57 49 46 63 73 74 74 78 81 82 87 96 98 96 92 89 90 91 88 82 80 80 83 84 87 90 92 95 94 97 98 95 93 93 92 93 87
71 73 77 79 81 76 79 87 94 98 98 88 67 75 70 69 81 80 83 83 92 95 96 98 96 95 99 98 97 94 90 90 88 86 85 86 87 87 89 92 94 97 97 98 97 95 94 94 95 95 96 94 94 91
89 88 90 89 80 81 85 92 95 98 96 94 97 94 85 85 91 93 94 98 97 95 96 97 98 98 96 94 91 91 88 88 90 91 93 94 95 96 96 98 98 98 97 97 96 96 96 97 97 96 94 91 87 84
93 96 96 97 95 95 96 96 97 98 98 98 98 98 98 98 98 97 97 96 93 92 94 91 91 92 91 92 93 94 95 95 93 93 95 95 96 96 97 98 98 98 98 97 97 97 97 97 95 92 92 88 86 87
98 98 98 98 98 97 97 98 97 97 97 98 97 96 95 92 91 92 92 92 92 93 92 94 90 94 95 96 97 97 98 98 97 98 98 98 97 98 99 97 97 97 98 98 98 97 97 97 96 93 93 92 89 87
99 98 98 98 98 96 98 98 95 96 96 96 96 96 96 96 93 91 92 95 95 91 88 88 91 95 96 96 96 97 97 97 97 97 98 98 98 98 98 98 98 98 98 98 98 98 97 97 97 97 95 89 83 82
99 99 99 99 99 99 97 97 95 96 97 97 97 97 96 97 97 97 97 97 98 96 95 94 96 97 97 97 97 97 97 97 97 97 97 98 98 98 98 98 97 97 96 95 93 91 94 94 90 87 88 89 89 88
90 98 99 99 98 98 97 97 97 97 97 95 97 96 97 97 97 97 96 95 94 96 97 97 97 97 97 97 97 98 97 97 97 98 98 98 98 98 98 97 97 97 96 96 95 92 89 88 89 89 89 87 85 84
67 78 82 90 96 97 97 97 97 97 97 97 97 96 96 96 96 96 94 94 96 97 97 97 97 97 97 97 98 98 98 98 98 97 97 98 97 97 97 97 96 95 93 92 89 87 85 85 86 86 84 81 80 81
37 42 50 64 80 91 97 97 96 97 97 98 97 97 97 97 97 93 95 97 97 97 97 97 97 97 97 97 97 97 97 97 97 97 97 97 97 95 94 93 92 88 85 83 84 85 84 83 80 79 78 78 77 74
22 29 42 57 70 85 92 96 97 97 97 97 97 97 97 97 96 94 97 98 98 97 97 97 97 97 97 97 97 97 97 97 97 97 97 95 91 90 89 86 83 81 80 80 78 74 71 67 64 61 58 55 53 52
17 30 31 42 52 66 75 86 94 94 97 97 97 97 97 94 97 97 97 98 98 97 97 97 97 97 97 97 97 97 97 96 92 85 84 81 80 78 76 73 69 63 56 52 48 45 42 41 40 38 36 35 34 33
31 37 38 41 43 45 53 61 68 75 82 87 91 87 84 88 93 97 97 98 98 98 98 98 98 96 93 89 85 83 82 81 78 72 68 64 60 55 48 43 40 37 36 35 34 31 28 27 26 27 29 31 33 35
41 42 41 42 44 44 46 47 50 52 56 63 65 67 68 75 80 81 85 86 84 83 82 81 80 78 77 75 73 70 68 64 58 52 47 42 38 36 35 33 30 27 25 24 23 23 24 26 29 33 36 40 43 46
48 47 47 46 44 44 48 50 52 55 57 57 53 56 57 58 60 64 68 72 75 77 76 76 75 74 71 67 61 53 47 43 41 40 39 36 32 28 24 22 21 21 22 25 28 31 33 34 36 39 40 41 42 43
49 48 45 49 48 51 56 58 60 62 63 62 60 61 62 63 67 71 72 73 74 75 74 71 66 60 53 47 45 45 44 42 39 34 28 23 20 19 19 21 25 27 29 30 31 32 32 32 33 34 36 39 42 46
35 34 34 38 41 47 51 53 54 56 57 59 60 66 70 73 75 77 78 78 75 71 67 63 58 53 51 50 47 44 38 32 26 22 19 19 22 25 27 28 28 28 29 30 30 30 30 32 34 37 40 43 46 47
32 27 31 35 42 42 40 38 37 38 40 44 50 53 60 63 66 67 67 66 64 60 58 56 53 49 48 45 40 33 27 23 20 21 24 27 28 28 28 29 29 29 28 28 29 30 32 34 37 39 41 42 42 44
34 35 37 42 46 47 48 48 45 44 46 47 48 49 50 51 52 53 55 56 56 56 54 52 52 50 46 35 28 24 21 23 26 29 29 29 29 29 29 29 28 28 28 29 31 33 35 37 39 41 42 41 41 43
41 41 42 45 49 51 52 53 53 54 54 55 56 57 58 57 58 58 60 60 60 57 56 53 48 40 30 25 23 24 28 30 30 30 30 30 30 29 28 27 28 29 30 31 33 35 37 39 41 42 42 42 42 43

GFSWCAN_prec_cthk_066.txt.gz
RH
93 92 72 79 97 88 93 79 88 99 81 78 86 98 98 98 98 96 90 87 78 68 64 64 78 82 67 57 53 48 54 44 41 54 67 57 60 58 65 74 76 72 71 72 68 74 68 40 42 43 34 41 41 40
87 80 78 88 97 75 70 75 95 96 80 75 72 95 98 98 98 97 96 90 71 74 80 79 79 92 78 49 56 51 27 38 42 42 60 60 65 67 49 59 62 77 68 66 58 53 49 48 47 44 41 46 47 46
93 96 84 89 96 98 98 98 93 84 81 74 66 88 98 99 99 96 94 80 71 81 75 83 92 91 85 75 53 42 39 31 32 33 38 51 60 53 64 53 45 53 62 73 68 54 52 57 56 52 51 52 52 55
98 98 94 85 98 97 96 88 83 82 81 78 89 98 99 99 98 94 88 75 81 85 79 70 76 86 90 67 45 27 31 30 31 29 32 42 55 45 44 42 47 43 51 54 56 57 63 61 59 58 63 58 55 54
98 98 98 87 86 88 89 81 81 88 94 98 98 98 99 98 96 95 89 86 84 77 92 84 83 83 96 71 49 38 34 33 47 47 43 42 43 51 50 45 45 43 46 51 53 52 57 61 63 59 63 60 58 57
97 98 98 98 97 95 93 96 97 98 98 98 98 99 96 94 93 97 95 81 75 71 78 85 82 87 96 83 61 40 37 43 47 61 64 57 45 44 56 53 47 45 39 41 44 47 53 59 59 59 62 60 58 60
97 97 98 98 98 98 98 98 98 98 98 98 98 98 96 96 97 86 70 61 62 67 92 97 91 70 85 88 74 58 49 42 48 54 53 54 51 47 58 53 48 50 48 48 50 52 53 55 58 62 64 60 60 63
89 98 98 98 98 98 98 98 98 98 98 98 98 98 97 93 79 73 61 54 59 85 95 97 98 94 93 88 86 78 69 57 54 51 51 44 47 52 61 48 49 54 59 61 57 54 57 59 61 65 66 66 68 68
66 86 96 98 98 98 97 97 98 97 97 98 96 93 86 82 73 72 65 66 79 87 96 97 98 98 98 97 90 88 86 82 71 64 60 56 53 54 44 41 47 53 57 59 60 61 61 62 64 63 64 72 72 73
67 68 88 92 93 95 96 96 94 93 90 88 85 83 83 75 62 74 84 90 96 92 86 96 96 98 91 88 92 92 94 92 86 72 69 67 54 53 55 53 51 53 53 55 58 61 64 66 75 72 76 81 82 82
73 73 77 85 84 79 78 78 77 73 72 68 65 63 60 74 90 91 86 84 83 81 80 93 94 98 98 89 87 87 86 89 87 88 84 77 64 60 62 59 54 50 54 70 74 72 76 79 88 87 86 88 89 91
73 71 75 83 84 73 64 60 56 57 69 81 82 69 71 95 96 98 87 79 65 70 81 91 98 94 92 82 74 69 68 71 79 83 86 86 85 87 83 71 63 69 74 81 88 90 87 92 92 91 95 98 98 98
73 71 67 75 79 80 80 76 76 88 90 93 89 91 99 97 91 83 91 88 72 67 73 75 74 82 79 72 65 61 63 73 79 92 94 95 95 96 93 91 82 82 84 93 99 94 91 95 97 95 96 98 98 97
84 78 80 82 86 88 87 89 85 82 75 84 91 93 93 79 76 66 68 67 67 61 62 68 69 72 73 70 64 60 66 77 86 97 97 97 98 98 95 92 93 93 97 98 98 96 97 92 90 90 92 95 94 95
84 85 79 82 84 84 82 77 77 81 86 86 88 78 73 71 76 77 73 73 77 74 69 67 65 58 60 62 66 71 75 85 91 94 94 95 97 97 98 97 95 95 95 93 93 92 91 91 92 95 97 96 95 96
75 82 83 82 80 76 76 76 72 67 83 95 90 85 80 76 79 81 73 75 73 75 78 76 74 72 70 71 73 77 79 84 95 96 95 93 93 93 94 93 94 94 94 95 95 96 96 96 96 96 96 97 96 96
62 68 74 78 80 78 73 73 80 87 96 90 83 79 78 78 73 70 67 63 62 66 69 76 80 83 82 77 78 85 86 89 97 97 97 96 96 97 97 96 96 98 98 97 96 95 95 96 96 96 93 92 90 88
81 72 69 69 70 74 82 90 93 96 97 87 83 81 78 75 79 82 88 89 91 92 89 85 92 93 86 82 84 89 95 96 97 98 97 96 96 97 98 98 98 97 97 95 95 95 94 96 97 96 94 93 91 89
95 94 95 94 93 95 97 97 97 96 97 97 97 97 97 97 97 97 98 98 98 98 96 97 96 95 96 96 96 96 97 97 97 97 97 97 98 98 98 97 96 96 96 96 96 97 96 97 97 96 94 93 92 92
98 98 97 97 97 97 97 97 97 96 96 97 97 97 97 97 97 97 97 97 97 96 95 94 96 97 97 97 97 96 97 97 98 97 97 96 96 96 96 97 97 97 97 97 97 96 96 95 95 94 94 93 92 91
97 98 98 97 96 96 97 98 97 95 95 95 97 97 97 96 96 95 94 93 92 95 94 96 95 95 95 96 97 97 97 97 97 98 98 98 97 97 97 97 97 97 97 97 97 96 95 94 93 91 88 84 82 80
95 96 98 96 94 93 96 97 97 97 96 95 93 92 92 93 94 94 92 91 93 95 95 96 97 97 98 97 98 98 97 97 98 98 98 97 97 97 97 98 98 98 97 96 94 91 89 86 82 77 72 65 58 49
72 75 77 85 91 91 97 95 95 97 96 97 96 95 94 92 91 88 89 93 95 96 96 96 95 95 95 95 96 97 97 98 97 97 97 97 97 97 97 97 97 94 91 88 83 77 69 61 54 46 39 33 29 25
34 40 49 58 68 77 84 91 94 95 93 93 92 94 94 95 94 93 95 97 98 98 97 97 97 97 97 98 98 98 98 98 98 97 97 97 96 94 91 86 80 76 70 63 56 48 41 35 31 27 25 22 21 21
20 30 37 44 47 50 55 59 64 72 86 91 90 93 94 92 91 93 95 97 98 98 98 98 98 98 98 98 98 97 97 97 97 94 91 87 83 78 74 68 60 52 45 39 35 31 29 28 25 22 20 20 20 19
31 36 35 41 45 47 50 54 57 60 60 61 63 67 75 82 86 91 94 97 98 98 98 98 98 98 98 98 97 96 93 89 86 83 79 74 69 60 51 44 39 35 32 31 29 26 22 21 20 20 19 19 20 22
37 38 39 41 44 45 47 49 51 53 57 60 60 56 57 59 63 68 76 82 89 94 98 98 98 98 97 94 91 87 84 80 75 68 59 50 42 37 34 32 31 28 25 22 22 21 20 19 19 20 21 22 23 24
41 41 40 41 40 40 42 44 45 47 48 50 50 53 54 56 57 63 69 72 77 79 81 83 86 88 87 88 84 79 72 63 53 43 34 30 27 26 24 24 23 22 23 22 20 20 19 20 21 22 23 24 25 26
42 40 36 38 38 39 43 46 48 51 52 53 52 53 54 57 58 62 66 70 73 79 79 78 76 73 71 67 61 54 45 34 28 26 26 26 26 25 24 24 24 24 22 21 21 21 21 22 23 23 25 26 27 27
33 31 30 33 34 38 38 37 38 39 40 42 45 51 57 62 68 73 75 78 81 82 81 80 79 78 71 62 53 42 34 30 28 27 26 25 25 25 25 25 25 23 22 22 22 22 23 24 25 27 29 29 30 30
31 31 32 34 37 40 39 37 38 39 40 42 44 48 54 60 67 75 82 87 89 91 91 82 70 64 61 53 43 35 30 27 26 25 26 26 26 27 27 26 24 23 23 23 24 24 26 27 29 31 32 32 33 34
32 34 33 37 41 42 42 43 44 44 46 47 48 49 52 56 59 59 62 62 62 61 61 61 63 59 49 37 29 25 24 25 27 28 28 29 29 29 26 25 24 24 24 24 25 27 29 31 33 33 33 34 35 36
36 35 36 39 43 46 47 48 47 48 49 50 52 55 56 58 60 60 61 61 61 60 59 59 55 47 34 28 26 27 28 31 30 30 30 29 28 27 26 25 25 25 25 26 28 31 33 33 32 33 34 35 37 39

GFSWCAN_prec_cthk_072.txt.gz
RH
82 87 88 88 88 87 80 74 73 76 91 93 96 71 63 76 95 99 98 96 94 95 88 85 88 87 84 74 68 59 62 63 78 73 75 64 76 63 57 53 61 78 82 84 77 81 72 57 53 52 41 43 44 46
92 93 95 90 82 84 88 89 80 73 94 99 98 89 82 76 81 98 98 98 98 97 94 93 79 80 89 79 75 69 41 70 59 69 69 74 76 68 51 53 60 77 93 81 72 68 60 57 60 63 60 55 53 54
96 98 80 86 88 85 83 86 98 81 88 93 97 94 86 88 89 92 97 96 99 99 98 97 86 88 85 78 71 64 49 48 82 74 60 61 69 57 75 62 55 65 67 80 73 70 75 72 67 64 61 61 59 58
92 78 87 85 92 82 85 80 98 95 83 85 99 87 91 97 93 97 98 98 99 98 98 87 82 79 88 80 66 60 59 56 57 75 86 83 65 47 61 60 58 55 60 61 62 59 62 68 66 72 69 64 60 58
87 82 90 88 96 86 90 89 89 87 81 86 98 88 97 94 87 87 92 96 97 93 90 88 82 78 83 75 62 57 58 65 85 93 76 55 59 63 60 59 57 51 49 56 62 49 53 54 56 57 63 67 67 64
90 81 82 89 97 94 87 85 84 78 78 96 98 98 98 97 87 85 96 99 98 96 92 89 86 85 74 65 56 57 60 68 88 97 88 61 58 57 60 60 54 45 43 49 58 55 55 55 57 55 58 59 66 69
98 92 84 89 91 88 94 97 97 97 95 95 98 98 98 99 98 97 91 83 94 93 87 90 85 73 63 66 72 68 70 77 88 96 91 72 61 48 50 47 33 32 31 37 38 52 54 54 54 47 51 57 59 61
98 98 91 86 79 80 87 84 83 90 93 97 99 99 99 98 97 95 88 89 93 93 92 80 72 71 65 75 85 78 78 87 95 84 87 82 61 51 51 36 36 32 37 47 50 53 54 51 50 51 52 52 57 58
97 98 98 85 75 81 86 91 94 96 97 97 98 97 95 96 97 96 96 96 94 91 83 75 69 75 75 81 82 84 80 80 85 90 81 78 70 65 59 51 43 39 38 40 52 46 50 58 58 58 59 61 61 61
98 98 98 95 89 90 92 95 98 98 99 98 96 95 98 97 92 92 94 91 89 83 82 73 66 74 93 91 87 83 86 97 98 91 80 78 77 74 79 77 70 59 48 49 47 47 51 56 55 59 65 65 63 62
98 98 98 98 98 98 98 98 99 98 96 94 93 93 94 93 91 89 85 83 81 82 74 71 67 73 92 92 96 88 87 88 97 86 74 74 71 74 71 67 65 60 51 46 45 46 49 54 58 58 59 58 63 70
98 98 98 98 98 98 97 97 95 91 88 83 81 89 93 89 86 81 78 81 79 71 69 68 75 85 91 95 98 93 98 89 88 77 78 78 72 66 66 66 61 60 56 53 53 57 59 61 62 60 63 72 75 79
97 98 98 97 96 96 95 92 90 88 87 87 81 80 81 79 78 74 70 68 80 81 87 82 86 94 97 99 97 90 93 94 91 87 82 71 67 66 65 61 59 62 67 71 71 71 72 73 72 69 73 86 90 93
77 83 85 86 88 91 91 87 84 81 82 80 87 86 85 80 83 89 83 81 88 92 91 87 89 95 98 98 97 98 95 99 98 97 87 79 75 70 70 70 71 81 86 86 88 94 96 93 80 80 88 92 98 97
78 78 79 77 76 82 83 79 75 76 80 82 81 77 81 79 78 80 73 76 82 86 83 84 90 88 91 98 95 98 94 93 94 92 92 88 88 84 83 85 90 97 97 97 95 94 95 95 96 94 94 96 96 95
79 83 84 82 75 82 84 73 75 76 81 80 81 82 79 75 73 73 75 72 87 84 86 92 93 95 91 94 90 89 83 83 80 77 83 95 95 95 93 94 97 98 97 97 97 97 97 97 97 96 96 97 97 96
81 81 79 79 80 85 87 85 78 84 85 90 89 82 77 75 75 79 80 85 90 93 89 92 91 91 85 79 79 76 75 75 85 90 93 97 97 98 97 97 97 97 97 97 97 97 97 97 97 96 95 95 95 94
70 71 72 72 76 76 77 82 82 82 85 82 82 82 79 76 77 77 79 90 91 90 86 86 85 83 87 82 78 74 69 70 80 89 97 97 97 97 97 97 97 97 97 97 97 97 98 97 96 96 95 94 93 92
64 66 68 67 67 70 75 79 82 82 81 78 79 82 82 84 83 80 80 83 83 77 72 72 76 77 76 74 71 71 78 76 80 93 97 97 97 97 97 97 97 97 97 97 97 97 97 97 97 96 94 93 92 92
77 76 76 76 79 82 90 87 83 84 87 86 85 85 84 83 81 75 75 76 74 69 70 70 68 67 67 69 73 79 85 89 90 94 97 97 97 97 98 97 97 97 97 97 97 97 96 95 95 93 92 90 87 83
86 84 82 80 81 92 96 97 97 96 95 91 86 81 79 77 75 73 71 68 67 74 73 75 76 88 94 97 97 97 97 97 96 97 97 97 97 97 97 97 97 97 97 97 97 96 94 92 90 88 83 77 67 58
98 97 92 90 90 93 95 96 96 96 96 96 95 94 94 90 83 80 77 78 83 87 89 87 95 96 97 97 97 97 97 96 96 97 97 97 97 97 97 97 97 97 97 96 94 90 87 83 75 65 57 50 46 45
88 86 85 87 89 91 96 97 96 96 96 96 95 94 95 95 96 94 95 96 97 98 97 97 97 97 97 97 97 97 97 97 97 97 97 97 97 97 97 97 97 94 91 88 81 72 63 57 54 52 51 49 46 43
45 45 52 59 65 70 71 78 85 87 90 90 89 91 93 93 93 93 95 97 97 97 97 97 97 97 97 97 97 97 97 97 97 97 98 98 98 98 97 93 88 83 77 69 62 57 54 52 50 48 46 42 37 34
26 39 44 45 48 51 52 53 54 53 56 56 58 64 71 74 76 83 90 95 97 97 97 97 97 97 98 98 97 97 98 98 98 98 98 94 92 88 84 78 72 68 64 59 57 56 52 48 42 35 28 30 31 27
34 37 38 42 46 48 50 51 52 51 51 50 53 54 56 53 54 59 62 68 76 82 86 89 95 97 98 98 98 98 98 98 97 96 95 92 85 79 73 67 63 57 56 56 53 49 44 37 34 32 29 21 19 23
37 41 42 43 48 48 48 47 46 46 48 51 52 52 50 51 55 59 63 67 69 71 74 76 76 78 83 87 89 90 89 88 82 79 74 70 66 62 60 56 53 51 48 44 42 40 35 30 27 26 25 24 19 21
36 38 38 38 37 36 37 40 42 45 46 46 47 47 47 49 50 55 58 64 67 72 76 76 78 81 84 86 84 79 72 70 70 67 61 58 53 50 46 43 41 38 37 32 25 23 22 23 24 21 20 21 21 23
37 36 29 33 32 33 36 39 39 39 40 42 43 44 46 50 52 55 59 62 67 69 73 77 79 85 85 82 80 79 78 73 69 65 60 58 54 46 41 39 34 32 34 27 23 21 21 20 20 20 21 24 29 32
36 33 31 33 35 37 38 37 38 39 39 39 39 41 44 48 52 57 62 66 70 72 75 79 80 82 85 79 71 64 60 60 58 57 53 49 42 37 35 34 32 28 27 26 26 25 21 23 25 27 27 28 28 26
34 33 33 34 38 41 40 40 40 40 41 42 43 43 46 52 56 60 66 68 72 78 79 83 87 88 87 82 72 61 49 44 40 39 38 38 37 35 33 31 27 25 24 23 23 24 23 27 31 31 32 29 27 27
37 37 36 39 41 41 40 45 41 41 44 44 45 48 50 53 57 59 63 67 71 74 79 83 89 83 74 60 49 45 41 39 38 36 34 32 30 29 29 28 25 25 25 24 24 24 26 26 27 29 29 29 29 29
41 40 38 39 38 38 40 44 44 45 48 49 47 49 50 53 56 60 62 65 67 68 68 65 63 59 48 36 31 29 28 28 28 29 29 29 30 31 31 29 26 25 24 24 26 28 28 28 28 27 28 28 29 30

GFSWCAN_prec_cthk_075.txt.gz
RH
72 78 83 89 90 89 89 89 87 86 87 86 85 82 68 60 82 91 97 96 98 98 92 87 90 84 74 72 71 66 76 62 51 56 47 57 62 76 77 72 80 79 81 89 91 87 85 60 59 54 52 49 42 40
85 89 96 95 93 87 85 84 84 83 85 86 87 86 83 73 77 93 99 98 99 98 93 91 90 83 75 76 74 76 72 59 52 54 48 51 62 68 64 68 65 76 85 82 79 77 72 65 65 61 55 52 50 47
93 97 87 77 82 85 84 82 84 85 86 79 77 84 94 92 82 88 98 97 99 99 98 96 88 79 78 76 79 80 77 71 57 52 64 61 64 61 76 59 52 58 60 69 70 69 74 75 65 62 60 60 59 61
97 96 80 82 89 91 86 83 83 87 86 90 77 78 92 98 96 85 90 98 99 98 98 92 88 82 76 75 81 84 86 78 70 57 58 85 79 59 65 59 49 48 56 56 55 60 79 71 69 69 65 67 66 66
98 91 78 90 96 81 91 90 90 87 99 86 80 95 98 99 94 86 95 98 99 95 94 85 85 84 83 81 83 84 89 85 67 70 72 64 84 88 68 61 51 45 53 67 66 60 61 62 63 61 64 76 73 70
98 85 88 95 91 91 88 97 98 97 90 93 99 98 97 96 95 95 98 98 98 95 94 94 85 86 87 86 81 80 78 76 68 65 78 76 71 86 82 68 50 43 45 56 64 71 69 64 61 64 63 61 66 65
93 87 85 84 97 82 83 92 91 88 92 94 96 90 91 92 93 87 85 85 96 97 92 95 93 88 85 80 79 82 79 67 62 62 67 77 85 92 96 80 54 47 45 47 56 60 64 61 56 57 60 62 61 63
84 86 89 92 88 96 84 78 83 98 97 91 95 97 98 98 99 94 87 92 99 96 91 93 95 91 83 83 85 81 79 68 58 60 70 77 78 93 94 65 51 43 41 49 49 46 48 49 54 56 57 56 56 54
80 81 92 94 94 95 96 95 97 95 97 97 99 99 99 98 98 97 98 98 99 94 89 83 84 89 89 86 79 76 78 82 68 72 74 78 91 97 82 68 49 38 33 36 46 50 53 53 54 55 55 55 55 55
87 88 90 94 98 99 97 97 98 98 97 98 98 98 95 99 99 97 99 97 96 93 86 83 80 83 77 74 75 84 86 81 77 71 75 85 83 98 94 88 70 51 45 41 43 45 45 49 49 49 61 62 65 67
98 93 96 96 97 98 98 98 99 98 98 96 95 98 99 97 93 94 94 94 91 90 82 80 77 74 66 89 84 89 97 94 85 83 71 77 86 96 98 90 78 68 61 57 51 50 47 43 46 51 57 61 61 62
98 99 98 97 97 97 97 96 96 91 87 85 87 93 92 90 88 86 90 90 84 82 79 78 76 73 67 77 93 94 96 91 83 88 98 91 97 99 98 92 86 86 81 71 62 57 58 61 61 60 62 64 64 65
98 98 98 98 98 98 95 93 92 91 88 84 80 85 87 84 86 82 86 82 78 77 77 71 69 64 65 78 85 99 93 86 85 86 85 92 96 94 89 90 85 81 78 73 69 65 67 68 69 69 71 73 74 74
97 97 97 96 96 96 95 92 88 84 80 88 93 95 96 97 91 83 82 83 82 85 78 76 85 89 94 94 97 97 87 92 95 90 86 87 90 85 82 78 74 69 65 67 69 72 75 78 80 82 86 85 82 82
86 89 92 94 92 86 82 80 78 78 81 83 82 84 86 91 86 86 89 97 96 95 89 88 88 90 97 98 99 99 97 97 97 87 85 86 86 82 77 74 72 69 71 72 77 87 91 92 92 96 97 95 95 96
77 77 84 84 85 82 77 77 74 73 77 75 73 78 79 82 82 79 85 96 97 97 94 92 90 91 97 98 95 95 95 96 97 97 97 95 92 89 86 84 80 77 79 84 91 97 97 97 97 97 97 97 97 97
78 72 75 71 70 74 70 67 70 70 73 79 82 79 77 74 75 74 75 87 95 98 97 96 97 96 90 90 92 93 93 90 90 93 90 90 91 97 93 90 89 91 92 93 97 97 97 97 97 97 96 97 96 96
77 75 72 70 74 73 73 75 69 71 74 78 78 76 74 71 73 73 76 88 96 95 90 93 91 92 90 87 88 88 82 83 93 95 94 95 97 97 97 97 97 97 97 97 97 97 97 96 96 96 96 94 92 90
69 70 70 71 73 72 73 73 71 76 78 77 77 78 76 74 73 71 77 92 92 85 79 84 90 94 92 87 86 88 86 85 81 79 85 96 96 97 96 97 97 97 97 97 97 96 96 96 96 96 95 93 92 90
71 69 67 70 74 79 86 89 82 78 80 80 80 80 82 82 80 76 85 89 85 78 74 78 83 84 84 87 88 89 87 80 78 83 86 97 97 97 97 97 97 97 97 97 97 97 96 96 96 94 91 88 83 77
89 86 85 85 87 90 96 97 96 95 97 97 94 90 87 83 80 77 76 75 75 78 75 80 82 89 88 87 87 87 81 79 84 90 94 97 97 97 97 97 97 97 97 97 97 97 95 93 90 86 79 69 61 57
94 90 88 88 88 93 97 97 96 92 90 93 95 91 89 87 83 77 73 72 76 78 80 82 82 81 83 94 97 97 97 96 97 96 97 97 97 97 97 97 97 97 97 97 95 92 88 79 69 61 57 56 52 50
79 79 80 83 84 88 96 96 96 96 97 97 97 96 93 91 89 83 86 89 90 95 95 95 96 94 95 98 97 97 97 97 97 97 97 97 97 97 97 97 97 94 90 86 80 72 65 63 59 55 54 49 44 41
41 40 47 55 61 67 65 68 69 70 73 78 83 91 95 96 94 94 96 97 97 97 97 97 97 97 97 97 97 97 97 97 97 97 97 98 97 97 97 96 90 84 77 70 63 61 58 54 53 51 48 45 41 35
24 37 41 46 47 50 50 51 50 49 51 51 51 57 62 59 63 67 74 79 90 94 96 97 97 97 97 97 97 97 97 97 98 97 98 98 97 95 90 84 78 76 71 63 60 55 51 48 44 42 39 36 33 32
35 38 40 46 49 50 51 51 51 50 50 49 50 48 46 47 53 59 62 64 65 67 70 73 76 80 84 91 95 97 97 98 98 98 98 96 92 81 77 74 73 69 67 61 53 49 45 43 40 34 30 29 25 22
39 44 43 44 47 45 44 41 40 43 47 50 49 47 46 50 55 57 59 63 65 67 69 73 75 76 76 78 82 85 83 82 82 85 88 85 79 73 69 64 60 56 56 52 47 44 40 36 34 29 23 19 18 19
36 38 39 36 35 35 38 40 42 45 45 46 46 45 47 49 51 55 57 61 66 67 70 74 76 77 79 83 85 83 81 76 73 69 67 67 63 60 57 52 50 48 44 42 39 35 33 28 23 22 20 20 20 20
37 31 27 32 30 33 38 39 40 40 39 40 42 43 44 47 49 53 58 61 66 68 70 73 77 78 80 84 85 79 77 73 74 74 66 63 60 55 51 48 44 42 40 38 33 28 25 23 22 22 21 21 21 21
34 29 28 33 37 40 41 41 40 39 36 37 38 41 43 47 52 55 60 64 67 69 72 75 78 79 74 71 70 71 67 65 64 65 61 54 50 47 44 42 40 37 34 31 27 25 24 23 23 23 24 23 24 26
33 29 31 36 41 43 42 41 39 38 39 39 40 41 43 47 53 56 59 65 68 69 74 79 79 83 86 81 71 62 56 53 50 49 46 43 42 42 40 39 36 32 28 25 24 23 23 24 26 25 25 26 27 27
35 32 32 40 44 44 44 46 43 40 41 41 41 44 47 50 53 57 61 64 68 72 73 78 80 79 77 72 61 53 48 45 43 42 39 37 35 33 31 30 28 27 25 24 24 25 25 27 26 25 27 28 28 28
38 37 36 39 44 43 40 42 39 43 43 43 45 47 48 50 54 57 61 65 68 70 71 72 70 65 57 45 37 34 32 31 30 30 30 31 31 31 32 32 30 27 26 25 25 27 28 27 26 28 28 27 28 28

GFSWCAN_prec_cthk_081.txt.gz
RH
91 85 79 77 75 70 67 70 72 74 77 84 86 85 87 96 98 96 96 98 98 96 92 86 86 87 88 87 87 83 85 80 82 83 81 80 79 64 57 57 66 66 77 80 88 98 93 73 66 70 73 70 65 67
81 74 69 74 76 75 72 70 71 74 76 76 77 77 79 83 95 98 96 96 99 99 93 91 88 88 81 80 81 86 85 84 78 77 72 70 75 74 63 56 53 66 59 69 76 93 87 74 66 73 78 79 69 69
68 65 69 77 86 89 89 90 89 88 85 82 80 78 76 76 74 92 98 98 99 98 95 93 87 87 86 83 82 86 85 82 82 80 77 72 70 67 66 56 60 56 53 62 68 72 75 68 62 68 74 81 78 75
71 83 90 94 96 95 88 82 79 76 73 71 75 87 85 81 78 75 87 95 99 98 96 91 86 84 84 86 83 85 86 89 86 87 89 80 76 66 72 62 56 61 70 63 63 66 64 56 55 58 65 69 82 79
98 98 97 93 87 84 85 85 83 80 82 83 80 80 92 94 92 86 78 83 93 96 95 91 87 81 85 84 82 81 86 88 90 90 87 84 78 77 73 70 55 43 51 67 73 69 67 63 61 60 60 64 70 75
93 89 91 90 91 87 81 80 79 78 75 76 90 92 86 98 99 99 97 84 78 89 95 90 84 80 82 83 85 91 89 91 91 88 87 79 77 87 84 61 54 47 45 50 58 58 58 53 52 54 65 71 70 73
90 94 96 87 75 80 81 87 87 82 82 90 87 98 92 98 99 93 79 67 66 94 99 96 90 82 79 84 88 92 94 93 92 92 88 80 76 86 78 73 60 52 52 54 60 57 59 55 62 55 65 73 80 82
94 96 90 89 86 88 85 94 90 91 98 99 98 97 98 99 100 97 87 76 71 94 96 97 85 85 90 91 95 92 94 92 95 95 90 84 81 75 70 60 55 51 53 56 58 64 58 52 55 57 66 75 78 79
92 88 95 94 90 89 85 93 93 98 98 99 99 99 99 99 99 97 89 88 89 94 96 98 90 83 87 92 98 97 98 99 98 94 90 84 78 66 57 55 49 44 49 52 56 55 61 57 56 66 72 78 78 73
92 88 91 91 83 77 89 92 98 99 99 98 97 98 99 99 96 97 98 98 98 97 92 91 83 82 80 87 98 99 97 98 96 84 81 77 63 57 54 51 42 43 46 59 68 62 67 66 68 77 78 74 76 71
95 90 91 94 94 90 88 99 99 99 98 96 97 97 98 96 96 97 97 94 98 97 97 90 79 84 89 93 95 93 96 91 84 72 78 72 67 62 59 56 50 48 53 69 72 73 78 78 78 70 63 69 69 64
98 97 92 92 92 94 90 85 92 88 92 87 85 96 97 95 96 96 98 98 90 85 84 82 85 87 90 88 93 97 93 91 83 78 81 72 68 64 65 63 58 59 64 76 85 80 76 71 69 68 63 64 69 72
98 95 91 90 87 87 97 98 96 93 96 93 95 97 97 95 96 97 92 87 79 73 76 78 85 87 91 89 90 94 91 88 84 86 83 76 72 73 71 66 62 63 74 82 89 89 84 71 71 76 76 78 79 79
97 98 96 91 88 85 88 88 91 90 87 83 79 86 86 88 87 85 83 80 80 80 80 80 83 85 84 83 84 81 80 92 90 82 80 78 80 80 78 73 76 84 82 80 87 93 98 90 89 91 89 82 79 80
97 97 94 93 89 86 82 79 77 77 78 79 78 84 84 81 84 84 83 82 81 81 84 84 85 87 89 87 85 83 85 90 89 90 90 90 90 88 89 95 94 92 87 90 98 97 98 99 95 90 86 90 86 83
91 91 91 88 84 80 77 75 73 71 73 80 86 88 89 90 88 87 87 86 86 88 88 89 92 94 91 85 83 79 80 85 92 97 95 94 95 95 92 94 92 91 93 97 98 97 96 93 91 90 89 85 81 88
87 86 84 82 79 73 72 70 70 74 81 87 86 88 91 93 93 91 90 88 87 85 90 92 90 90 93 84 85 93 95 93 91 96 96 97 97 94 90 87 88 86 89 95 96 94 94 93 92 90 85 86 86 95
79 81 77 75 73 71 67 65 70 75 81 82 81 90 96 95 96 95 96 98 98 97 97 97 93 94 96 96 96 97 97 97 97 95 96 97 97 97 94 93 91 91 93 96 95 97 97 94 90 86 87 90 95 96
67 67 66 66 62 60 62 68 68 76 80 80 77 75 78 89 97 97 97 97 96 97 97 96 96 95 95 97 97 96 96 96 97 97 97 97 97 97 97 96 97 96 94 95 95 95 97 92 92 92 97 97 97 97
71 70 68 69 65 65 68 68 65 73 77 76 74 73 71 73 81 91 95 95 97 93 91 93 96 96 95 94 95 96 97 97 96 96 96 95 96 95 93 96 96 97 97 97 97 97 94 93 96 97 97 96 94 88
80 79 82 79 75 68 74 72 72 74 76 75 73 72 71 65 65 72 89 88 88 90 88 90 93 97 97 96 96 94 94 97 97 96 97 97 96 91 89 92 97 97 97 97 97 97 97 97 97 96 90 79 66 61
89 88 85 78 75 78 78 77 78 80 80 82 81 76 75 73 68 71 80 89 92 90 91 91 89 89 91 92 94 95 96 97 97 97 97 97 97 98 96 93 95 97 97 97 97 97 97 94 84 75 65 60 58 53
82 81 81 79 80 85 93 94 93 95 94 92 89 86 83 84 85 80 88 89 88 86 86 87 90 94 92 90 91 92 92 92 96 97 97 97 98 98 98 97 98 98 98 98 97 91 81 74 68 62 59 55 50 48
51 52 57 65 72 84 84 90 90 90 91 96 96 96 93 93 89 90 94 97 98 98 97 97 98 98 98 98 98 98 98 97 97 98 98 98 98 98 98 98 98 97 92 84 77 71 70 65 62 59 55 50 47 44
26 38 41 43 42 44 46 50 50 47 51 53 56 66 71 65 70 74 77 79 81 82 84 87 89 92 94 96 97 98 98 98 98 98 98 98 98 98 98 97 92 90 84 78 74 72 65 62 60 56 51 47 44 40
35 43 43 45 43 43 44 45 45 45 45 46 49 50 43 47 51 57 58 62 64 65 67 69 72 74 75 76 76 79 84 91 95 97 98 98 98 97 94 90 86 84 80 74 70 65 62 60 55 50 47 43 40 37
37 38 36 37 37 34 36 35 36 38 41 44 45 44 41 47 52 55 58 60 63 64 65 66 69 73 75 76 77 78 80 84 87 87 88 91 96 97 93 86 80 75 71 67 63 59 53 51 49 45 41 39 37 34
30 29 31 31 29 30 34 36 38 39 41 41 39 43 44 47 51 54 55 58 62 66 66 67 69 74 77 77 78 81 86 86 83 83 81 80 81 77 74 72 67 64 62 58 55 54 52 48 44 41 39 36 33 30
26 26 25 31 31 35 38 40 40 40 39 40 39 42 45 47 52 55 56 58 61 64 67 67 68 72 76 78 78 79 80 78 74 72 71 71 71 68 65 63 62 59 56 54 52 49 45 43 40 37 34 32 28 25
28 28 30 34 38 41 41 40 39 37 37 37 37 42 44 47 49 53 56 57 59 64 67 67 68 73 75 76 71 69 70 69 69 69 64 61 59 59 61 58 56 54 50 47 44 43 40 38 36 32 28 27 26 25
30 29 33 38 43 43 40 39 38 38 37 38 40 41 43 45 49 54 58 59 61 64 68 71 72 75 76 73 66 65 63 63 61 57 54 53 52 49 49 49 47 46 45 45 44 42 36 31 30 30 29 28 27 26
30 30 33 38 42 43 45 45 41 41 41 40 40 42 45 47 50 54 58 63 65 67 71 74 76 77 72 67 63 57 57 57 54 50 48 47 46 45 45 44 43 41 39 36 32 31 30 29 30 30 29 27 27 27
33 31 33 38 43 44 44 45 44 44 43 44 45 46 47 47 50 54 57 60 63 67 71 73 74 72 68 62 54 49 45 42 39 38 37 37 37 37 37 37 37 37 37 36 32 31 31 32 32 30 28 28 30 32

GFSWCAN_prec_cthk_087.txt.gz
RH
97 97 98 98 98 98 98 97 97 97 98 98 98 98 99 98 94 88 73 70 69 68 67 85 93 86 82 86 96 97 97 95 96 95 92 88 80 74 69 68 79 74 76 75 81 91 84 79 80 80 78 81 91 89
92 90 89 89 90 92 94 96 95 96 95 97 97 98 98 98 98 95 94 86 90 94 92 86 84 89 90 90 94 97 93 95 96 97 89 84 82 81 74 71 63 69 64 63 65 73 91 77 74 75 75 77 82 91
75 76 78 78 77 79 81 81 81 82 86 92 94 95 97 98 98 98 99 99 98 98 98 96 93 94 94 94 90 96 96 96 98 94 94 89 84 75 76 68 61 57 58 58 56 45 52 69 71 76 76 78 78 80
83 87 89 90 89 83 74 69 67 74 85 83 81 85 94 96 98 98 98 98 99 99 98 91 86 88 86 97 97 94 93 96 97 98 98 95 91 77 74 67 64 56 55 53 48 44 51 54 68 74 72 76 81 77
98 97 96 95 95 96 97 95 85 78 76 81 86 89 90 93 97 98 98 98 99 95 96 91 84 80 85 88 92 96 97 97 98 98 95 92 89 87 82 80 70 60 57 59 54 48 49 57 72 70 72 75 80 77
98 95 90 89 94 96 97 96 95 97 94 90 93 88 88 91 98 99 98 98 99 99 98 98 96 86 84 88 94 95 97 98 98 97 94 90 85 89 86 80 66 62 58 59 56 56 50 65 71 69 71 73 76 73
98 94 89 92 93 93 93 94 93 94 97 98 98 98 98 97 96 97 95 86 91 98 98 96 95 95 90 92 94 97 98 98 98 97 94 91 85 90 87 81 69 64 61 57 56 57 54 50 63 66 67 66 73 77
90 85 84 84 83 84 87 88 87 89 94 95 95 96 98 99 99 99 92 83 89 98 98 98 92 92 90 89 91 94 99 99 97 95 93 91 89 90 85 73 65 59 58 55 54 52 51 50 45 60 73 68 73 80
89 88 91 87 82 74 72 78 90 92 93 97 98 99 99 99 96 96 96 92 92 92 96 96 89 88 90 89 90 95 98 98 97 93 92 93 88 84 74 68 64 63 61 57 56 54 51 47 49 53 65 73 74 83
96 98 93 88 82 76 78 93 96 99 99 99 99 99 98 94 89 93 99 98 98 95 87 83 82 88 94 91 93 98 98 98 96 88 93 93 81 76 74 71 67 66 62 57 55 54 55 48 46 52 58 72 79 87
99 93 92 90 86 82 93 94 99 99 99 98 99 97 93 97 96 97 98 97 95 90 82 79 82 86 94 98 95 96 98 96 93 85 92 85 75 74 75 73 70 65 62 59 57 57 56 53 47 44 60 72 87 89
98 96 90 92 90 92 99 98 98 96 94 89 82 96 98 97 98 99 94 93 83 80 78 79 86 93 99 98 94 95 96 96 89 84 88 74 71 72 72 72 70 67 64 61 58 55 59 61 56 56 61 76 89 91
92 96 89 88 94 98 97 96 95 93 93 92 93 96 98 97 98 86 83 83 89 85 83 81 89 94 96 98 97 96 98 96 83 89 80 73 74 78 78 75 74 71 68 66 63 60 63 65 61 70 80 88 89 85
93 92 98 90 92 98 97 94 96 92 89 88 89 90 88 81 78 77 76 83 89 89 82 82 84 93 92 90 95 98 89 92 95 90 82 79 78 75 79 80 75 72 70 70 70 70 69 68 68 74 93 97 94 88
95 94 95 85 85 90 94 92 90 88 82 84 81 84 79 76 77 77 75 83 90 96 94 91 88 88 92 96 96 92 96 96 89 81 78 81 84 79 83 89 91 85 86 87 82 77 74 73 82 82 88 97 98 94
94 92 88 83 79 78 81 86 82 70 70 77 79 79 80 84 79 78 79 84 88 94 96 93 94 92 95 94 90 92 90 87 83 85 88 88 87 88 91 93 97 94 95 91 85 83 84 87 92 94 96 97 97 97
88 86 84 80 76 77 76 73 72 75 82 83 89 89 88 87 85 83 83 83 84 87 88 85 87 93 91 93 93 93 91 91 89 87 87 86 87 93 96 96 97 97 97 97 93 95 96 93 92 97 97 96 97 97
83 80 81 79 78 76 74 75 79 84 90 94 94 93 94 94 90 90 93 93 93 92 90 93 92 94 96 95 95 95 92 90 89 89 90 92 94 94 94 94 97 97 97 97 97 97 97 96 97 97 97 97 97 97
80 77 74 72 71 70 73 74 76 89 96 97 97 97 98 97 96 95 95 96 96 97 97 97 96 95 96 96 97 97 97 97 97 97 97 97 97 96 97 97 97 97 97 97 97 97 97 97 97 97 97 97 97 97
65 64 63 66 66 68 74 76 76 84 96 95 95 96 96 97 97 98 97 97 96 94 95 95 96 97 97 97 97 97 97 97 97 97 97 97 97 97 97 97 97 97 97 97 97 97 97 97 97 97 97 97 97 97
71 65 60 58 63 67 75 75 73 77 80 85 89 92 91 94 96 97 97 97 96 97 97 98 98 98 97 97 97 97 97 97 97 97 97 97 97 97 97 97 97 98 96 97 97 98 98 98 98 97 98 97 88 80
79 72 66 61 61 66 74 73 73 74 74 75 75 72 74 80 86 90 91 95 97 98 98 98 97 97 97 97 97 97 97 97 97 97 97 97 98 98 98 98 98 97 98 98 98 97 98 98 97 93 82 78 73 68
72 67 66 64 65 65 72 71 71 75 74 77 74 75 77 73 68 71 84 91 96 98 98 98 97 96 93 92 93 94 96 96 97 98 98 98 98 98 98 98 98 98 98 98 98 98 97 93 87 81 76 70 64 60
69 72 75 78 79 86 83 83 84 83 83 86 83 85 84 84 85 88 95 96 96 99 98 98 98 97 96 98 98 98 98 98 98 98 98 98 98 98 98 98 98 98 98 98 95 89 85 83 78 71 68 64 61 59
33 41 40 47 51 61 69 73 75 74 80 78 72 70 69 64 69 72 74 74 77 79 79 78 78 79 81 83 86 90 94 96 98 98 98 98 98 98 98 98 98 98 98 95 92 86 80 74 71 70 69 66 60 58
32 37 36 38 37 37 41 44 45 47 47 49 50 46 43 48 54 59 60 62 62 64 65 67 67 67 67 68 69 72 74 76 78 80 85 89 92 97 98 98 98 98 98 94 88 82 81 77 71 69 64 60 59 56
32 33 32 33 32 31 33 34 35 37 41 43 42 40 41 48 52 54 57 57 59 59 62 64 66 67 68 69 71 74 76 78 78 79 80 83 88 88 90 95 98 97 93 89 83 78 73 70 65 62 60 57 54 52
29 27 29 31 31 32 34 36 37 38 39 39 36 41 43 47 50 54 56 57 58 59 61 64 66 67 67 67 71 76 77 78 79 81 85 84 83 82 80 77 77 77 76 74 71 68 65 64 61 58 55 53 51 50
29 30 29 33 32 33 36 38 38 38 37 37 38 42 44 46 50 53 55 56 58 61 64 66 67 68 69 69 71 74 75 73 70 72 76 74 74 75 78 78 76 75 73 69 66 64 63 59 55 53 51 50 48 46
31 30 30 33 37 39 38 38 37 36 36 35 36 40 44 47 49 51 55 57 58 60 63 65 64 64 62 59 61 63 64 61 58 59 60 61 63 63 63 62 63 64 64 62 59 57 55 54 52 50 47 44 42 41
30 28 31 35 39 40 39 37 37 37 35 36 39 41 43 46 49 51 54 57 60 62 64 67 71 70 65 62 61 62 60 57 55 54 53 53 55 55 55 55 54 53 52 50 50 49 48 46 44 43 41 38 37 34
28 29 32 36 39 39 39 39 37 38 39 40 42 42 44 45 47 49 51 54 58 62 65 67 67 66 64 61 60 56 55 56 54 51 49 49 51 50 50 50 48 47 45 43 43 43 42 39 36 35 35 35 33 32
31 29 30 32 37 40 40 40 39 41 42 42 42 42 42 42 45 46 48 52 54 55 57 59 61 59 59 56 55 52 53 51 48 46 45 45 44 44 43 42 41 41 41 40 40 40 39 37 34 33 33 33 31 31

GFSWCAN_prec_cthk_090.txt.gz
RH
61 79 94 97 97 97 96 96 97 98 98 98 98 98 98 98 98 98 92 87 72 64 49 55 72 68 65 74 81 86 90 92 98 91 81 78 69 61 57 59 75 72 73 72 69 75 65 53 60 73 82 81 80 77
93 94 93 92 91 91 92 95 96 98 98 98 98 98 99 98 98 99 93 86 83 75 61 57 51 64 87 87 87 85 90 98 93 92 78 75 74 71 66 67 62 69 66 70 66 61 52 56 74 77 78 79 78 77
82 77 74 74 75 78 81 85 89 93 96 97 97 97 98 98 98 98 97 95 96 88 77 69 63 73 77 79 86 93 91 93 94 91 97 87 83 71 74 66 65 60 59 60 64 55 47 48 48 61 75 80 78 80
81 86 88 87 81 75 74 73 76 82 88 90 94 97 98 98 98 98 97 97 95 98 96 87 87 85 79 85 88 97 96 95 98 96 97 93 88 78 76 71 68 63 62 59 58 55 55 46 50 51 61 77 76 81
97 96 96 94 93 91 89 87 79 71 73 76 87 94 97 98 98 99 99 97 98 96 94 85 85 82 85 88 92 95 97 98 98 98 94 94 89 93 86 80 69 66 64 62 60 58 57 54 53 58 63 71 73 79
97 95 95 94 90 86 87 89 90 88 76 75 86 88 95 96 98 99 98 98 97 98 98 98 98 98 92 90 95 97 97 99 97 95 95 94 95 91 88 79 68 70 65 61 59 57 58 56 56 61 66 69 71 77
90 85 82 83 82 83 84 89 94 96 94 87 83 88 95 98 98 96 93 85 91 98 99 96 91 96 96 93 96 98 98 99 98 98 93 92 89 89 85 75 68 65 64 62 59 59 52 58 56 55 62 64 69 76
87 86 86 87 85 84 88 92 92 98 96 96 89 95 98 98 99 98 95 90 90 98 98 96 96 99 98 97 98 98 98 98 97 98 95 91 88 88 80 69 65 65 65 63 61 60 55 54 53 51 47 54 68 75
98 98 95 91 86 82 84 91 97 96 97 99 96 98 99 99 96 94 97 94 94 96 96 92 93 96 92 94 96 97 98 98 97 95 95 94 88 84 74 72 68 70 70 66 63 61 61 58 53 51 48 50 58 74
96 97 93 87 78 75 73 76 93 95 97 98 99 98 98 97 94 98 99 98 99 97 96 88 87 93 90 90 95 94 93 97 94 86 88 92 82 79 78 78 77 73 70 68 64 61 59 57 57 55 52 47 57 61
95 91 86 83 79 76 90 87 91 99 99 98 98 97 95 98 98 99 98 98 95 93 85 81 82 82 86 90 97 96 97 93 89 84 90 85 78 79 79 80 77 74 72 69 67 65 62 58 56 57 52 47 49 64
93 89 89 90 92 91 99 98 97 92 96 97 90 94 99 98 98 98 93 91 81 77 74 74 77 77 84 88 89 97 94 96 89 87 89 78 77 78 76 76 76 75 72 71 68 66 62 59 56 58 56 55 58 57
93 95 93 91 97 98 98 97 99 94 96 97 94 96 98 96 97 88 81 79 79 75 74 76 79 84 90 91 94 98 94 91 87 91 83 75 73 74 73 73 74 72 70 68 67 69 66 64 61 60 59 63 65 69
93 95 98 96 93 93 95 98 97 94 94 92 93 90 96 90 78 75 76 75 76 83 83 79 81 88 94 98 98 93 89 92 95 89 82 73 73 74 77 79 77 77 78 76 75 72 70 69 66 63 61 65 71 77
89 83 89 96 97 96 93 92 92 89 81 80 81 82 78 72 74 72 75 78 85 94 86 87 90 89 91 92 90 92 98 95 87 80 78 81 79 73 72 74 75 76 79 80 79 75 75 75 72 69 70 70 73 79
90 85 82 88 94 88 90 90 85 83 82 80 78 80 80 75 74 75 77 86 94 96 91 95 93 91 93 90 87 87 84 83 79 79 79 78 77 77 79 80 81 88 94 95 95 91 90 87 81 76 77 82 81 80
84 84 81 81 84 89 85 81 73 82 85 85 81 80 79 81 79 78 78 84 93 95 95 90 89 90 88 88 85 84 86 87 86 85 85 83 82 81 81 81 83 90 95 97 97 97 94 90 87 87 88 92 95 93
83 83 82 80 80 79 78 80 81 85 90 91 88 88 92 88 82 82 84 86 88 92 90 88 85 87 90 90 92 94 95 93 92 89 86 89 90 90 90 89 90 93 96 97 98 97 93 94 97 98 97 96 97 97
81 81 76 77 77 76 78 83 82 85 90 91 91 93 93 92 91 91 91 93 94 95 93 96 96 95 95 96 96 97 97 97 97 97 97 96 96 96 97 97 97 97 97 97 98 97 97 97 98 98 97 97 97 97
77 77 74 74 73 73 77 85 86 85 89 92 93 94 96 97 98 97 98 98 97 97 96 95 96 96 97 97 97 97 98 97 97 97 97 97 96 97 97 97 97 97 97 97 97 97 97 97 97 97 97 97 97 97
65 64 64 64 72 73 75 79 87 90 92 93 95 92 93 96 96 97 97 97 96 97 96 97 98 98 97 97 97 97 98 97 97 97 96 96 96 97 97 97 97 98 97 97 97 97 97 97 98 98 98 98 98 94
67 62 62 63 69 74 74 73 74 76 77 80 84 87 90 92 93 94 92 93 94 96 98 99 98 98 98 98 97 97 97 96 96 96 96 96 97 97 98 98 98 98 97 98 97 97 98 98 98 98 95 87 81 75
68 63 59 58 60 69 76 75 74 75 74 76 75 75 76 74 77 82 92 94 96 98 99 98 98 98 98 98 98 96 95 95 95 96 97 97 97 98 98 98 98 98 98 98 98 98 98 97 93 89 83 78 72 68
71 70 71 70 65 66 67 70 75 79 81 81 80 82 81 82 81 81 87 92 95 96 98 98 98 98 97 97 97 96 95 96 97 98 98 98 98 98 98 98 98 98 98 98 98 98 95 92 87 81 75 70 68 67
40 53 60 70 75 78 80 81 81 81 82 77 71 70 70 69 71 71 73 74 76 77 78 78 79 79 78 79 79 80 80 83 85 86 90 95 98 99 99 98 98 98 98 98 98 95 89 82 81 79 77 73 69 66
28 35 36 38 40 41 45 46 47 48 46 47 47 44 44 46 49 54 55 58 59 61 63 64 66 67 68 68 69 69 72 74 77 78 78 78 80 84 90 93 97 98 98 98 94 91 89 86 81 75 71 69 65 61
29 32 32 33 34 34 35 36 36 36 40 41 41 39 42 45 50 52 56 57 58 58 60 62 65 66 66 67 68 69 71 75 78 78 80 81 84 86 88 88 89 90 92 95 96 91 84 80 76 71 68 64 61 59
29 29 30 32 32 32 33 34 36 37 37 37 35 40 42 45 47 52 54 55 56 57 59 62 64 65 66 66 69 72 74 77 77 78 80 86 88 89 89 88 86 86 85 83 81 77 74 71 66 63 62 60 57 55
32 32 30 32 32 34 37 36 37 38 37 36 37 38 40 44 47 50 53 55 56 57 59 61 64 65 65 65 67 70 74 72 70 71 72 75 77 76 78 79 82 82 80 77 74 72 68 66 63 60 57 55 54 53
34 33 30 32 35 38 37 36 35 33 33 34 36 40 42 44 46 49 52 55 57 58 60 60 62 62 60 57 58 59 59 59 58 59 58 59 60 62 64 62 61 61 62 64 64 62 59 58 56 55 54 53 50 48
32 30 30 36 38 40 38 35 34 34 34 36 38 38 40 43 46 47 50 51 55 58 60 63 65 63 62 61 61 61 60 57 57 56 55 54 53 53 52 53 54 55 55 53 52 51 50 50 49 48 46 44 42 39
31 32 32 35 38 38 37 37 37 38 39 40 41 41 42 44 45 45 46 48 51 55 57 58 54 54 54 54 56 56 55 55 54 53 52 52 51 49 48 47 47 48 48 47 46 46 46 46 44 41 39 38 37 36
34 32 31 31 35 37 37 38 39 41 42 44 44 43 42 42 42 42 43 47 50 52 54 56 56 54 52 49 47 46 47 47 47 47 47 46 45 44 44 44 44 44 43 43 43 43 43 42 40 38 36 35 34 33